Tracking 29892 objects as of 21-Nov-2024
HD Live streaming from Space Station
objects crossing your sky now

STARLINK-30330

Track STARLINK-30330 now!
10-day predictions
STARLINK-30330 is classified as:


NORAD ID: 57636
Int'l Code: 2023-122E
Perigee: 565.3 km
Apogee: 567.1 km
Inclination: 43.0 °
Period: 95.8 minutes
Semi major axis: 6937 km
RCS: Unknown
Launch date: August 17, 2023
Source: United States (US)
Launch site: AIR FORCE EASTERN TEST RANGE (AFETR)
Your satellite tracking list
Your tracking list is empty




NASA's NSSDC Master Catalog

Two Line Element Set (TLE):
1 57636U 23122E   24325.86845459  .00000907  00000-0  82187-4 0  9998
2 57636  43.0021 149.5197 0001317 248.6540 111.4161 15.02543534 70909
Source of the keplerian elements: AFSPC